Wind_Speed
43 42 43 44 45 42 41 40 40 40 40 40 39 38 37 35 34 32 31 30 30 32 31 31 29 32 34 37 36 35 33 34 35 37 41 42 38 37 37 39 43 47 50 52 54
48 48 47 47 47 48 47 46 46 45 45 44 43 41 41 40 38 37 34 33 32 32 34 35 34 34 36 38 38 37 37 37 37 38 41 43 39 36 35 36 41 45 49 52 54
55 54 52 50 50 52 51 52 49 50 49 47 47 45 44 45 43 39 38 37 36 34 34 36 38 37 36 37 39 38 39 39 38 39 40 42 40 36 35 34 40 44 48 53 53
61 64 61 60 56 55 57 55 56 54 54 53 52 50 49 47 46 43 42 41 41 38 38 37 40 42 40 39 40 36 38 39 40 39 41 44 40 35 34 34 39 43 47 51 51
68 67 68 68 66 65 62 62 62 61 59 58 57 55 54 53 51 49 47 45 45 45 41 42 43 44 44 42 41 40 38 39 43 43 44 45 40 33 33 33 37 40 46 50 52
75 74 74 74 73 74 71 70 68 68 66 66 63 62 60 58 54 53 51 51 50 50 48 48 48 47 45 45 44 43 40 41 44 44 44 45 40 34 31 32 36 40 43 46 53
79 81 83 82 81 79 78 76 76 74 74 71 71 69 65 65 62 58 57 55 53 52 51 50 50 49 49 49 47 47 41 43 45 45 45 44 42 35 33 34 35 37 42 44 51
85 85 86 87 87 87 86 85 83 82 80 78 75 74 74 70 67 64 62 59 56 54 53 54 54 52 51 49 50 48 44 45 46 45 45 44 42 39 35 34 34 36 41 42 46
94 94 93 92 91 91 90 87 87 87 86 85 81 78 77 74 74 71 66 63 60 57 55 55 58 56 53 50 47 47 46 47 49 45 45 44 41 40 38 35 31 34 38 41 43
85 92 97 98 100 99 97 95 92 90 89 87 89 86 79 79 77 76 71 66 65 61 58 58 58 57 54 51 48 49 48 46 49 45 44 46 43 41 40 35 34 34 38 40 41
59 73 87 95 99 105 104 104 105 100 92 90 90 89 86 83 78 79 79 73 69 64 62 63 59 60 57 53 50 49 46 46 48 43 37 43 44 42 43 40 37 36 39 40 39
42 46 62 74 86 93 99 106 108 109 102 99 96 89 90 84 83 78 78 79 76 68 67 64 60 65 61 57 54 51 47 46 46 44 39 41 43 43 46 45 44 41 41 40 39
48 52 51 54 63 78 86 89 103 109 108 107 103 98 94 90 88 83 76 75 75 74 70 66 63 67 62 58 55 53 50 51 47 45 41 41 46 47 50 51 49 46 47 45 41
52 53 51 47 56 63 77 87 93 102 112 108 110 104 104 96 92 90 82 80 78 72 68 66 65 64 57 54 52 51 52 51 50 49 47 45 49 52 53 55 53 51 52 52 46
60 61 57 56 61 57 68 76 92 95 98 110 113 110 104 104 94 94 93 89 83 78 74 68 67 68 60 54 58 54 56 54 56 54 51 50 52 53 55 57 58 58 54 52 51
59 63 61 61 62 60 57 66 79 92 97 100 112 109 110 103 103 101 98 93 91 90 82 74 73 72 66 66 65 61 60 58 57 57 56 56 56 54 63 57 57 59 56 54 50
63 65 60 65 61 56 53 53 68 81 90 96 99 111 113 110 107 106 101 99 96 94 86 83 80 78 74 72 69 67 66 62 60 61 60 61 62 57 63 60 54 59 57 57 54
68 66 63 64 67 53 47 50 49 65 80 88 94 100 110 113 110 109 105 101 98 96 93 89 86 83 80 77 76 72 70 68 65 65 66 67 63 66 62 60 58 61 61 60 54
68 70 66 61 60 49 43 43 48 56 65 72 83 90 97 110 112 112 108 103 100 100 97 95 89 89 86 82 81 77 74 71 70 68 69 69 66 66 62 61 63 61 59 57 52
69 71 62 57 55 47 39 41 47 52 52 58 70 80 88 98 106 111 109 105 101 100 98 98 96 94 90 87 83 80 78 76 74 71 68 67 65 66 63 63 65 58 57 54 51
74 74 65 59 55 45 38 39 43 43 51 59 64 71 76 86 98 99 106 105 104 101 100 97 97 93 97 86 87 85 80 75 74 68 66 61 60 71 66 63 63 60 55 52 49
75 73 67 61 51 42 36 33 34 39 44 47 52 60 62 72 76 88 92 100 102 100 101 97 98 95 97 87 85 82 78 74 71 67 65 65 63 73 62 64 62 54 50 52 49
73 73 66 61 48 39 31 31 33 34 35 40 46 55 60 62 66 71 78 88 84 96 96 96 97 94 94 88 85 81 79 76 73 73 70 65 61 72 65 58 54 51 50 49 49
74 75 71 62 46 35 29 29 30 30 29 34 40 45 50 54 60 63 62 61 67 80 81 88 91 91 89 86 85 81 83 79 77 71 65 61 61 66 55 54 55 50 49 50 51
74 77 74 60 45 34 28 28 28 28 27 30 34 38 45 48 52 55 60 60 60 60 63 68 73 80 82 80 81 77 75 72 68 64 64 58 66 67 57 55 53 51 50 52 53
78 77 71 56 42 32 27 26 28 27 26 27 34 38 40 41 46 51 54 56 59 58 62 61 59 62 63 69 72 67 68 66 63 59 57 57 52 41 59 54 51 51 52 52 52
80 75 68 51 40 30 24 24 26 27 31 32 36 37 38 42 43 48 52 53 49 51 52 56 59 54 54 57 59 61 59 58 56 54 54 57 55 57 60 51 51 50 50 49 46
Wind_Direction
232 233 231 235 238 242 245 248 251 254 257 257 260 265 269 269 270 274 278 282 285 291 296 302 310 314 315 319 324 329 332 330 336 343 350 353 351 353 354 359 1 0 1 357 354
233 235 237 236 238 239 243 248 252 254 257 258 260 261 266 269 271 274 273 276 281 287 294 298 306 311 314 317 321 324 327 326 330 336 341 350 348 351 354 358 360 359 360 358 353
237 240 239 239 241 242 245 246 249 252 254 257 259 260 262 266 269 270 272 274 277 281 288 297 300 306 311 314 317 320 321 320 323 329 336 341 345 348 351 355 356 357 359 359 352
242 241 241 241 241 245 247 247 249 250 253 255 257 258 261 262 265 267 270 273 276 279 286 291 298 299 304 308 311 314 316 316 316 323 329 333 341 343 347 352 354 357 1 358 349
244 245 246 246 246 248 248 248 249 251 250 252 254 255 258 260 261 264 267 269 273 277 281 285 289 293 300 303 306 310 310 312 314 319 324 329 337 340 344 348 348 355 358 1 351
245 247 248 247 249 250 250 253 254 252 251 251 250 253 255 256 258 261 263 267 271 275 279 281 284 289 293 299 303 305 307 308 310 315 320 325 333 336 342 345 345 349 355 358 356
250 251 251 249 251 251 251 253 253 252 253 252 252 252 252 257 256 258 261 262 266 271 275 277 282 286 290 293 298 298 302 306 306 310 317 321 325 330 334 341 342 346 350 355 353
255 255 253 252 251 252 254 255 253 252 253 251 251 253 253 253 256 257 258 260 263 266 271 274 277 281 284 288 292 293 298 302 303 309 311 315 320 326 330 336 340 345 346 352 2
262 260 258 257 255 255 253 253 255 255 252 250 250 250 252 253 254 255 256 258 261 264 267 271 276 279 282 284 286 288 293 297 298 304 306 310 315 322 323 329 336 340 342 348 358
264 261 259 259 260 258 256 253 252 252 252 253 248 249 250 250 252 253 254 255 257 259 264 267 271 276 278 280 283 286 290 291 293 300 301 303 309 313 316 323 328 334 337 343 353
262 262 262 261 258 255 256 256 254 251 251 252 252 250 248 249 251 253 254 253 256 258 259 261 266 271 272 276 279 280 283 284 291 294 294 297 304 310 312 318 323 328 332 337 345
280 282 264 262 262 258 255 254 251 252 250 249 249 248 251 247 248 250 254 254 254 255 257 259 261 264 268 273 274 276 278 279 287 290 291 293 301 305 308 313 317 322 324 329 335
294 293 270 269 268 262 258 254 251 247 248 248 247 246 247 248 249 248 249 253 253 254 254 256 259 263 266 268 269 272 274 278 282 285 287 291 299 301 303 308 312 316 318 321 328
303 296 291 285 286 270 256 253 252 246 246 243 245 243 244 246 246 248 247 250 253 252 251 252 254 259 260 263 265 270 272 275 279 281 285 291 294 298 302 304 307 312 313 316 323
308 301 298 299 297 284 258 252 248 247 245 242 240 240 241 242 240 242 243 247 250 251 249 252 253 255 256 260 263 265 268 272 276 280 285 288 290 295 297 300 304 307 310 312 318
317 310 305 306 304 298 270 255 245 242 243 242 239 239 240 240 239 238 241 243 246 249 250 250 253 256 257 257 260 262 266 269 273 279 284 284 289 293 294 297 300 303 308 308 313
320 315 309 310 305 297 277 260 247 243 238 238 237 234 237 237 238 238 238 239 243 246 248 248 251 253 255 257 260 263 265 269 273 276 281 284 286 288 289 295 294 300 304 307 311
320 320 315 311 307 300 280 265 255 246 244 239 238 235 234 237 237 239 238 238 240 244 246 248 249 252 252 254 256 260 264 267 270 273 278 281 283 287 288 288 295 298 304 304 307
326 325 320 313 308 302 286 264 250 242 240 241 239 236 234 235 237 238 239 238 238 242 245 247 247 249 251 253 256 258 262 264 268 272 274 278 282 282 283 288 291 300 297 301 305
325 325 320 315 313 304 284 258 248 245 243 238 235 233 231 233 235 237 239 240 239 241 243 245 247 250 252 253 256 259 260 263 267 270 272 274 280 279 280 287 294 293 296 296 296
323 326 326 317 314 307 285 262 252 248 243 239 234 232 230 232 234 236 238 240 240 241 243 245 248 250 252 254 256 259 261 264 265 267 272 273 273 274 283 287 291 294 292 291 291
325 328 326 321 316 307 286 269 256 248 246 241 236 231 231 233 234 234 237 238 238 242 244 246 247 249 253 252 254 257 261 263 264 266 266 269 272 275 282 285 289 286 285 287 283
327 328 327 322 317 307 286 268 258 254 245 238 233 229 228 229 231 234 236 240 241 241 242 244 247 250 252 254 256 259 259 260 261 264 268 269 271 272 283 283 278 280 279 275 275
327 328 329 324 319 308 279 267 256 253 244 237 232 230 229 230 229 231 235 240 242 244 244 244 246 248 252 254 255 254 256 259 262 263 266 270 268 273 276 270 274 274 271 269 271
326 327 326 323 318 308 281 260 251 238 238 230 230 229 228 228 230 232 233 235 238 240 243 244 246 247 248 251 254 256 257 258 259 261 263 260 264 276 269 266 269 268 266 267 270
324 325 324 322 314 302 278 260 250 236 229 223 223 227 231 230 230 230 231 232 230 233 238 242 242 244 246 249 252 251 252 255 258 259 259 255 260 269 264 262 259 261 262 266 271
321 323 322 320 309 292 274 260 247 233 218 218 222 223 227 229 229 231 233 234 233 235 237 236 238 239 240 244 248 251 252 252 251 248 246 245 253 250 256 257 256 259 261 267 271
Height
11010 11012 11015 11017 11020 11021 11022 11022 11022 11024 11025 11026 11028 11028 11026 11028 11029 11030 11030 11030 11030 11029 11029 11028 11029 11028 11027 11025 11024 11021 11020 11017 11014 11010 11006 11003 10998 10994 10989 10983 10977 10970 10963 10954 10946
11002 11004 11007 11010 11012 11014 11016 11017 11018 11018 11018 11020 11022 11023 11023 11022 11025 11026 11026 11026 11027 11027 11025 11025 11025 11025 11024 11022 11021 11020 11017 11014 11012 11008 11006 11002 10999 10994 10990 10985 10978 10971 10963 10956 10948
10994 10996 10998 11001 11003 11006 11008 11010 11011 11012 11013 11014 11014 11016 11017 11017 11019 11021 11021 11022 11023 11023 11024 11020 11020 11020 11020 11020 11019 11018 11016 11012 11010 11008 11005 11002 10999 10994 10990 10985 10979 10971 10964 10957 10949
10984 10987 10988 10990 10993 10996 10998 11000 11003 11004 11005 11006 11008 11009 11010 11011 11014 11015 11016 11016 11017 11018 11018 11018 11016 11014 11017 11016 11016 11016 11014 11010 11007 11006 11004 11001 10998 10993 10989 10985 10979 10972 10965 10959 10951
10976 10977 10978 10980 10981 10984 10987 10989 10992 10994 10995 10997 10999 11001 11003 11004 11007 11008 11009 11009 11009 11011 11014 11013 11014 11013 11010 11012 11012 11011 11011 11008 11004 11002 11001 10997 10996 10991 10988 10984 10979 10973 10966 10960 10953
10966 10967 10968 10968 10970 10973 10975 10976 10978 10981 10983 10985 10988 10991 10993 10996 10998 10999 11001 11003 11003 11004 11006 11007 11008 11008 11009 11005 11008 11007 11006 11004 11001 10999 10998 10994 10992 10989 10987 10983 10978 10973 10967 10962 10956
10952 10954 10955 10956 10958 10959 10961 10962 10963 10966 10969 10971 10974 10978 10983 10986 10988 10990 10992 10995 10996 10997 10998 10998 11000 11002 11003 11003 11003 11002 11002 11001 10997 10995 10993 10991 10988 10987 10984 10981 10978 10974 10968 10963 10957
10936 10937 10938 10940 10941 10945 10948 10949 10949 10951 10954 10957 10959 10963 10967 10973 10975 10980 10982 10984 10987 10989 10990 10990 10991 10993 10996 10998 10998 10997 10996 10995 10993 10991 10989 10987 10985 10982 10980 10979 10977 10974 10969 10964 10958
10917 10917 10919 10921 10923 10925 10928 10931 10933 10935 10938 10941 10944 10949 10950 10957 10961 10966 10970 10975 10978 10980 10982 10982 10981 10985 10988 10991 10992 10991 10991 10989 10987 10987 10983 10982 10978 10975 10976 10975 10975 10972 10968 10965 10960
10894 10894 10895 10897 10899 10903 10906 10911 10913 10914 10918 10925 10928 10935 10938 10938 10945 10950 10957 10961 10966 10971 10972 10973 10974 10975 10977 10981 10984 10984 10984 10984 10981 10981 10977 10974 10974 10974 10972 10972 10971 10971 10967 10964 10961
10876 10874 10872 10871 10872 10875 10879 10883 10886 10892 10904 10908 10907 10921 10922 10928 10932 10933 10940 10948 10952 10958 10961 10962 10967 10967 10967 10972 10975 10976 10977 10974 10976 10976 10973 10969 10967 10966 10963 10964 10965 10965 10965 10961 10960
10863 10858 10854 10850 10847 10847 10849 10850 10860 10864 10880 10886 10888 10902 10902 10911 10916 10919 10922 10930 10938 10943 10946 10952 10957 10953 10959 10964 10965 10966 10968 10966 10968 10968 10967 10963 10962 10960 10956 10956 10957 10959 10958 10958 10957
10847 10840 10835 10832 10826 10823 10819 10822 10826 10833 10850 10856 10869 10881 10883 10891 10901 10905 10911 10909 10921 10928 10934 10939 10942 10942 10949 10953 10955 10956 10959 10958 10960 10960 10960 10958 10954 10953 10949 10947 10949 10951 10949 10950 10953
10829 10821 10817 10814 10806 10797 10798 10795 10797 10802 10815 10836 10839 10856 10858 10874 10883 10888 10897 10895 10899 10912 10918 10924 10927 10930 10937 10941 10944 10947 10946 10948 10950 10950 10950 10952 10948 10944 10941 10937 10939 10942 10941 10940 10945
10810 10798 10794 10787 10782 10769 10767 10767 10768 10773 10785 10805 10808 10824 10838 10846 10868 10869 10872 10876 10888 10892 10901 10912 10914 10917 10926 10929 10930 10936 10936 10940 10939 10940 10942 10942 10941 10939 10935 10931 10931 10930 10932 10932 10933
10794 10783 10773 10766 10756 10745 10739 10737 10738 10742 10758 10769 10780 10804 10804 10827 10834 10843 10852 10863 10868 10870 10884 10899 10900 10905 10913 10913 10917 10922 10925 10929 10930 10930 10932 10930 10931 10933 10922 10928 10921 10919 10923 10923 10923
10779 10766 10756 10746 10735 10723 10715 10715 10715 10721 10732 10741 10756 10768 10779 10794 10805 10814 10833 10841 10850 10854 10870 10876 10883 10889 10896 10901 10905 10910 10913 10918 10921 10920 10921 10919 10920 10923 10916 10915 10915 10909 10911 10911 10911
10762 10751 10736 10728 10715 10701 10695 10694 10701 10702 10704 10714 10730 10743 10758 10768 10783 10789 10804 10820 10835 10839 10848 10858 10866 10872 10879 10885 10889 10897 10902 10907 10909 10910 10909 10907 10910 10905 10907 10906 10905 10899 10898 10899 10902
10743 10725 10717 10708 10695 10684 10678 10679 10677 10677 10681 10694 10708 10723 10739 10747 10757 10769 10782 10800 10812 10821 10830 10835 10848 10849 10858 10868 10874 10884 10889 10893 10898 10901 10898 10895 10896 10892 10892 10893 10892 10895 10889 10888 10889
10732 10720 10707 10687 10676 10669 10664 10661 10661 10664 10675 10678 10685 10697 10713 10724 10737 10746 10761 10780 10793 10802 10810 10818 10824 10832 10840 10850 10860 10867 10873 10877 10884 10887 10887 10887 10885 10876 10882 10884 10881 10881 10881 10878 10877
10717 10703 10688 10675 10663 10654 10650 10648 10649 10655 10656 10658 10668 10681 10694 10702 10714 10734 10744 10759 10770 10784 10792 10801 10806 10817 10814 10841 10843 10849 10857 10865 10866 10873 10874 10876 10874 10860 10872 10870 10870 10869 10868 10868 10866
10701 10688 10674 10660 10651 10643 10638 10637 10640 10641 10645 10650 10659 10668 10679 10691 10709 10715 10727 10733 10749 10763 10775 10786 10788 10795 10796 10819 10826 10833 10841 10847 10851 10857 10859 10861 10865 10844 10862 10858 10856 10857 10857 10853 10853
10687 10675 10662 10651 10641 10632 10629 10629 10629 10631 10635 10640 10646 10655 10664 10678 10691 10699 10710 10712 10740 10744 10753 10762 10771 10779 10785 10803 10812 10821 10824 10829 10834 10837 10846 10849 10850 10832 10849 10847 10843 10845 10844 10843 10842
10674 10661 10651 10640 10631 10625 10621 10621 10622 10625 10629 10633 10637 10646 10657 10668 10677 10689 10698 10711 10717 10721 10740 10744 10752 10763 10773 10785 10789 10801 10803 10813 10819 10826 10830 10837 10829 10823 10836 10834 10831 10832 10832 10830 10831
10664 10652 10639 10632 10622 10617 10614 10614 10616 10619 10622 10627 10632 10641 10648 10657 10666 10677 10685 10698 10705 10713 10719 10726 10736 10747 10758 10765 10767 10787 10791 10796 10802 10810 10816 10816 10810 10810 10820 10820 10820 10819 10820 10818 10819
10651 10643 10631 10623 10615 10609 10607 10608 10610 10613 10618 10622 10627 10633 10641 10650 10658 10665 10671 10683 10692 10702 10705 10715 10725 10733 10744 10749 10757 10768 10771 10781 10787 10794 10801 10798 10805 10804 10799 10807 10808 10809 10809 10809 10808
10636 10630 10620 10614 10607 10602 10602 10602 10604 10606 10611 10616 10620 10628 10636 10642 10650 10656 10664 10674 10686 10694 10699 10707 10710 10724 10731 10737 10747 10753 10761 10766 10771 10777 10782 10781 10787 10789 10786 10794 10796 10797 10799 10799 10798